Change the Weather History Date:

Tuesday, December 3, 2013

  Actual Average Record
Temperature  
Mean Temperature 34 °F -  
Max Temperature 37 °F 34 °F 60 °F (1962)
Min Temperature 30 °F 19 °F -2 °F (1976)
Degree Days  
Heating Degree Days 32    
Moisture  
Dew Point 29 °F    
Average Humidity 84    
Maximum Humidity 100    
Minimum Humidity 65    
Precipitation  
Precipitation 0.01 in - - ()
Sea Level Pressure  
Sea Level Pressure 29.84 in    
Wind  
Wind Speed 15 mph (East)    
Max Wind Speed 22 mph    
Max Gust Speed 30 mph    
Visibility 7 miles    
Events      
Averages and records for this station are not official NWS values.
T = Trace of Precipitation, MM = Missing Value Source: NWS Daily Summary

Daily Weather History Graph

Daily Weather History Graph

Search for Another Location

Airport or City:

Trip Planner

Search our weather history database for the weather conditions in past years. The results will help you decide how hot, cold, wet, or windy it might be!

Date:

Astronomy

Dec. 03, 2013 Rise Set
Actual Time 7:11 AM CST 4:09 PM CST
Civil Twilight 6:38 AM CST 4:42 PM CST
Nautical Twilight 6:01 AM CST 5:19 PM CST
Astronomical Twilight 5:25 AM CST 5:55 PM CST
Moon 7:39 AM CST (12/3) 5:13 PM CST (12/3)
Length of Visible Light 10h 04m
Length of Day
8h 57m
New Moon, 1% of the Moon is Illuminated
Dec 3
New Moon
Dec 9
First Quarter
Dec 17
Full
Dec 25
Last Quarter
Jan 1
New

Hourly Weather History & Observations

Time (CST) Temp. Windchill Dew Point Humidity Pressure Visibility Wind Dir Wind Speed Gust Speed Precip Events Conditions
12:15 AM 37.4 °F 29.3 °F 28.4 °F 70% 29.84 in 10.0 mi SE 12.7 mph - N/A   Overcast
12:35 AM 37.4 °F 28.9 °F 28.4 °F 70% 29.83 in 10.0 mi SE 13.8 mph 18.4 mph N/A   Mostly Cloudy
12:55 AM 37.4 °F 29.8 °F 28.4 °F 70% 29.83 in 10.0 mi SE 11.5 mph - N/A   Partly Cloudy
1:15 AM 37.4 °F 29.3 °F 28.4 °F 70% 29.83 in 10.0 mi SE 12.7 mph - N/A   Mostly Cloudy
1:35 AM 37.4 °F 30.3 °F 28.4 °F 70% 29.84 in 10.0 mi SE 10.4 mph - N/A   Overcast
1:55 AM 35.6 °F 27.5 °F 28.4 °F 75% 29.83 in 10.0 mi SE 11.5 mph - N/A   Overcast
2:15 AM 37.4 °F 28.2 °F 26.6 °F 65% 29.83 in 10.0 mi SSE 16.1 mph 19.6 mph N/A   Overcast
2:35 AM 37.4 °F 28.5 °F 26.6 °F 65% 29.83 in 10.0 mi SSE 15.0 mph 21.9 mph N/A   Overcast
2:55 AM 35.6 °F 26.6 °F 26.6 °F 70% 29.83 in 10.0 mi SE 13.8 mph - N/A   Mostly Cloudy
3:15 AM 35.6 °F 27.1 °F 28.4 °F 75% 29.83 in 10.0 mi SSE 12.7 mph - N/A   Mostly Cloudy
3:35 AM 35.6 °F 26.6 °F 26.6 °F 70% 29.82 in 10.0 mi SE 13.8 mph - N/A   Overcast
3:55 AM 35.6 °F 26.2 °F 26.6 °F 70% 29.82 in 10.0 mi SE 15.0 mph 19.6 mph N/A   Mostly Cloudy
4:15 AM 35.6 °F 25.9 °F 26.6 °F 70% 29.82 in 10.0 mi SE 16.1 mph 21.9 mph N/A   Overcast
4:35 AM 35.6 °F 26.6 °F 26.6 °F 70% 29.82 in 9.0 mi SE 13.8 mph 19.6 mph N/A   Overcast
4:55 AM 33.8 °F 23.5 °F 28.4 °F 81% 29.83 in 5.0 mi SSE 16.1 mph 24.2 mph N/A   Mostly Cloudy
5:15 AM 33.8 °F 24.8 °F 30.2 °F 87% 29.83 in 3.0 mi SE 12.7 mph - N/A   Overcast
5:35 AM 33.8 °F 25.8 °F 32.0 °F 93% 29.83 in 5.0 mi SE 10.4 mph - N/A   Overcast
5:55 AM 32.0 °F 22.1 °F 30.2 °F 93% 29.83 in 3.0 mi SSE 13.8 mph - N/A   Overcast
6:15 AM 33.8 °F 24.8 °F 30.2 °F 87% 29.84 in 3.0 mi SE 12.7 mph - N/A   Overcast
6:35 AM 33.8 °F 24.3 °F 30.2 °F 87% 29.85 in 2.5 mi SE 13.8 mph - N/A   Overcast
6:55 AM 33.8 °F 23.9 °F 30.2 °F 87% 29.85 in 4.0 mi SE 15.0 mph 20.7 mph N/A   Overcast
7:15 AM 33.8 °F 23.9 °F 30.2 °F 87% 29.85 in 7.0 mi SE 15.0 mph - N/A   Overcast
7:35 AM 32.0 °F 21.6 °F 30.2 °F 93% 29.86 in 4.0 mi ESE 15.0 mph - N/A   Overcast
7:55 AM 33.8 °F 22.8 °F 30.2 °F 87% 29.86 in 7.0 mi ESE 18.4 mph 21.9 mph N/A   Overcast
8:15 AM 33.8 °F 22.8 °F 30.2 °F 87% 29.86 in 8.0 mi ESE 18.4 mph 25.3 mph N/A   Overcast
8:35 AM 33.8 °F 23.5 °F 28.4 °F 81% 29.85 in 8.0 mi ESE 16.1 mph - N/A   Overcast
8:55 AM 33.8 °F 23.2 °F 28.4 °F 81% 29.86 in 8.0 mi ESE 17.3 mph 23.0 mph N/A   Overcast
9:15 AM 32.0 °F 20.5 °F 28.4 °F 87% 29.86 in 2.0 mi East 18.4 mph 23.0 mph N/A   Overcast
9:35 AM 32.0 °F 20.8 °F 30.2 °F 93% 29.87 in 5.0 mi East 17.3 mph 26.5 mph N/A   Mostly Cloudy
9:55 AM 32.0 °F 22.1 °F 30.2 °F 93% 29.88 in 10.0 mi East 13.8 mph 26.5 mph N/A   Overcast
10:15 AM 32.0 °F 20.5 °F 30.2 °F 93% 29.89 in 10.0 mi East 18.4 mph 24.2 mph N/A   Overcast
10:35 AM 32.0 °F 20.1 °F 28.4 °F 87% 29.88 in 10.0 mi East 19.6 mph 28.8 mph N/A   Overcast
10:55 AM 32.0 °F 19.5 °F 28.4 °F 87% 29.87 in 10.0 mi East 21.9 mph 29.9 mph N/A   Overcast
11:15 AM 32.0 °F 21.2 °F 26.6 °F 80% 29.88 in 10.0 mi East 16.1 mph 24.2 mph N/A   Overcast
11:35 AM 33.8 °F 23.5 °F 26.6 °F 75% 29.88 in 10.0 mi East 16.1 mph - N/A   Overcast
11:55 AM 33.8 °F 23.2 °F 26.6 °F 75% 29.88 in 10.0 mi East 17.3 mph 25.3 mph N/A   Overcast
12:15 PM 33.8 °F 22.8 °F 26.6 °F 75% 29.87 in 9.0 mi East 18.4 mph 24.2 mph N/A   Overcast
12:35 PM 33.8 °F 22.8 °F 26.6 °F 75% 29.87 in 10.0 mi East 18.4 mph 24.2 mph N/A   Overcast
12:55 PM 33.8 °F 23.2 °F 26.6 °F 75% 29.86 in 10.0 mi East 17.3 mph 26.5 mph N/A   Overcast
1:15 PM 33.8 °F 24.3 °F 26.6 °F 75% 29.85 in 10.0 mi East 13.8 mph 24.2 mph N/A   Overcast
1:35 PM 32.0 °F 21.2 °F 26.6 °F 80% 29.85 in 9.0 mi East 16.1 mph - N/A   Overcast
1:55 PM 32.0 °F 20.8 °F 28.4 °F 87% 29.84 in 10.0 mi East 17.3 mph 23.0 mph N/A   Overcast
2:15 PM 32.0 °F 22.5 °F 28.4 °F 87% 29.84 in 7.0 mi East 12.7 mph 23.0 mph N/A   Overcast
2:35 PM 32.0 °F 21.6 °F 28.4 °F 87% 29.84 in 10.0 mi East 15.0 mph 23.0 mph N/A   Overcast
2:55 PM 32.0 °F 22.1 °F 28.4 °F 87% 29.84 in 10.0 mi East 13.8 mph 24.2 mph N/A   Overcast
3:15 PM 32.0 °F 20.8 °F 28.4 °F 87% 29.84 in 10.0 mi East 17.3 mph 24.2 mph N/A   Overcast
3:35 PM 33.8 °F 24.3 °F 28.4 °F 81% 29.84 in 10.0 mi East 13.8 mph 21.9 mph N/A   Overcast
3:55 PM 33.8 °F 23.2 °F 28.4 °F 81% 29.83 in 10.0 mi East 17.3 mph 24.2 mph N/A   Overcast
4:15 PM 33.8 °F 22.8 °F 28.4 °F 81% 29.84 in 7.0 mi East 18.4 mph 24.2 mph N/A   Overcast
4:35 PM 33.8 °F 23.5 °F 28.4 °F 81% 29.84 in 7.0 mi East 16.1 mph 24.2 mph N/A   Overcast
4:55 PM 33.8 °F 23.5 °F 28.4 °F 81% 29.84 in 10.0 mi ENE 16.1 mph 21.9 mph N/A   Overcast
5:15 PM 33.8 °F 23.2 °F 28.4 °F 81% 29.84 in 6.0 mi East 17.3 mph 24.2 mph N/A   Overcast
5:35 PM 32.0 °F 20.5 °F 28.4 °F 87% 29.85 in 1.8 mi NE 18.4 mph - N/A   Overcast
5:55 PM 30.2 °F 18.9 °F 28.4 °F 93% 29.84 in 1.8 mi ENE 16.1 mph - N/A   Overcast
6:15 PM 30.2 °F 17.8 °F 28.4 °F 93% 29.84 in 1.2 mi NE 19.6 mph 25.3 mph N/A   Overcast
6:35 PM 33.8 °F 23.2 °F 28.4 °F 81% 29.84 in 1.5 mi ENE 17.3 mph 25.3 mph N/A   Overcast
6:55 PM 30.2 °F 18.5 °F 28.4 °F 93% 29.84 in 1.8 mi NE 17.3 mph 23.0 mph N/A   Overcast
7:15 PM 30.2 °F 17.4 °F 30.2 °F 100% 29.83 in 2.0 mi ENE 20.7 mph 25.3 mph N/A   Overcast
7:35 PM 32.0 °F 21.2 °F 28.4 °F 87% 29.84 in 1.8 mi ENE 16.1 mph - N/A   Overcast
7:55 PM 30.2 °F 18.9 °F 28.4 °F 93% 29.85 in 1.2 mi ENE 16.1 mph - N/A   Overcast
8:15 PM 32.0 °F 20.8 °F 28.4 °F 87% 29.84 in 1.0 mi ENE 17.3 mph 21.9 mph N/A   Overcast
8:35 PM 30.2 °F 20.8 °F 30.2 °F 100% 29.85 in 1.2 mi ENE 11.5 mph - N/A   Overcast
8:55 PM 33.8 °F 25.3 °F 32.0 °F 93% 29.85 in 1.5 mi East 11.5 mph - N/A   Overcast
9:15 PM 35.6 °F 27.5 °F 33.8 °F 93% 29.84 in 1.5 mi East 11.5 mph 19.6 mph N/A   Overcast
9:35 PM 35.6 °F 26.6 °F 33.8 °F 93% 29.84 in 2.5 mi East 13.8 mph - N/A   Overcast
9:55 PM 33.8 °F 25.8 °F 33.8 °F 100% 29.84 in 4.0 mi East 10.4 mph - N/A   Overcast
10:15 PM 35.6 °F 28.0 °F 32.0 °F 87% 29.84 in 6.0 mi East 10.4 mph - N/A   Overcast
10:35 PM 35.6 °F 28.0 °F 33.8 °F 93% 29.84 in 7.0 mi East 10.4 mph - N/A   Overcast
10:55 PM 35.6 °F 27.5 °F 33.8 °F 93% 29.83 in 9.0 mi ENE 11.5 mph - N/A   Overcast
11:15 PM 33.8 °F 24.3 °F 33.8 °F 100% 29.83 in 8.0 mi East 13.8 mph - N/A   Overcast
11:35 PM 35.6 °F 26.6 °F 33.8 °F 93% 29.82 in 8.0 mi East 13.8 mph - 0.01 in   Overcast
11:55 PM 33.8 °F 25.8 °F 33.8 °F 100% 29.84 in 8.0 mi ENE 10.4 mph - 0.01 in   Overcast